This is the latest recevied weather packets stored in our database for station/object N2XP-3. If no packets are shown the sender has not sent any weather packets the latest 10 day(s).
| Time | Temp. | Humidity | Pressure | Rain* | Wind** | Luminosity | Snow |
|---|---|---|---|---|---|---|---|
| 1777748263 | 17.22° C | 40% | 1008.7 hPa | 0 mm | 0.89 m/s, 212° | - | - |
| 1777747964 | 17.22° C | 40% | 1008.7 hPa | 0 mm | 0.89 m/s, 18° | - | - |
| 1777747664 | 17.22° C | 41% | 1008.7 hPa | 0 mm | 1.34 m/s, 239° | - | - |
| 1777747421 | 16.67° C | 41% | 1008.8 hPa | 0 mm | 0.89 m/s, 314° | - | - |
| 1777747361 | 16.67° C | 41% | 1008.8 hPa | 0 mm | 0.89 m/s, 314° | - | - |
| 1777747061 | 16.67° C | 41% | 1008.8 hPa | 0 mm | 1.79 m/s, 125° | - | - |
| 1777746762 | 16.67° C | 42% | 1008.8 hPa | 0 mm | 0.45 m/s, 266° | - | - |
| 1777746459 | 16.67° C | 42% | 1008.8 hPa | 0 mm | 1.34 m/s, 259° | - | - |
| 1777746157 | 16.11° C | 42% | 1008.9 hPa | 0 mm | 0.45 m/s, 27° | - | - |
| 1777746113 | 15.56° C | 43% | 1009.1 hPa | 0 mm | 1.34 m/s, 93° | - | - |
| 1777745858 | 15.56° C | 43% | 1009.1 hPa | 0 mm | 1.34 m/s, 93° | - | - |
| 1777745554 | 16.11° C | 42% | 1009.2 hPa | 0 mm | 1.79 m/s, 20° | - | - |
| 1777744954 | 16.11° C | 44% | 1009.1 hPa | 0 mm | 0.45 m/s, 155° | - | - |
| 1777744644 | 16.11° C | 43% | 1009.2 hPa | 0 mm | 2.24 m/s, 166° | - | - |
| 1777744344 | 16.11° C | 43% | 1009.2 hPa | 0 mm | 0.89 m/s, 58° | - | - |
| 1777744044 | 16.11° C | 44% | 1009.1 hPa | 0 mm | 1.34 m/s, 31° | - | - |
| 1777743738 | 15.56° C | 44% | 1008.9 hPa | 0 mm | 0 m/s | - | - |
| 1777743439 | 15.56° C | 43% | 1008.9 hPa | 0 mm | 3.13 m/s, 52° | - | - |
| 1777742837 | 16.11° C | 45% | 1009.1 hPa | 0 mm | 0.89 m/s, 46° | - | - |
| 1777742535 | 16.11° C | 45% | 1009.1 hPa | 0 mm | 0.89 m/s, 122° | - | - |
| 1777741923 | 15.56° C | 48% | 1009.2 hPa | 0 mm | 0.89 m/s, 263° | - | - |
| 1777741615 | 15° C | 49% | 1009.4 hPa | 0 mm | 1.34 m/s, 62° | - | - |
| 1777741012 | 14.44° C | 49% | 1009.6 hPa | 0 mm | 2.24 m/s, 136° | - | - |
| 1777740713 | 14.44° C | 49% | 1009.7 hPa | 0 mm | 1.34 m/s, 276° | - | - |
| 1777740413 | 14.44° C | 49% | 1009.7 hPa | 0 mm | 2.24 m/s, 68° | - | - |
* Rain latest hour (hover to see other rain measurements)
** Current wind speed in m/s (hover to see current wind gust speed)